Regional Weather Roundup
Issued by NWS

Home | Current Version | Previous Version | Graphics & Text | Print | Product List | Glossary On
Versions: 1 2 3 4 5 6 7 8 9 10 11 12 13 14 15 16 17 18 19 20 21 22 23 24 25 26 27 28 29 30 31 32 33 34 35 36 37 38 39 40 41 42 43 44 45 46 47 48 49 50
000
ASUS43 KLSX 211307
RWRMO

WEATHER SUMMARY FOR MISSOURI
NATIONAL WEATHER SERVICE SPRINGFIELD MO
800 AM CDT THU OCT 21 2021

NOTE: "FAIR" INDICATES FEW OR NO CLOUDS BELOW 12,000 FEET WITH NO
       SIGNIFICANT WEATHER AND/OR OBSTRUCTIONS TO VISIBILITY.
       CURRENT SKY AND/OR WEATHER CONDITIONS ARE NOT AVAILABLE FOR
       CHILLICOTHE AND FARMINGTON.

MOZ001>031-035>038-043-044-053-054-211400-
...NORTHERN AND WESTERN MISSOURI...

CITY           SKY/WX    TMP DP  RH WIND       PRES   REMARKS
KANSAS CTY INT PTCLDY    42  37  82 NW5       30.13R
KANSAS C DTWN  PTCLDY    44  37  76 W7        30.14R
LEE`S SUMMIT   CLEAR     43  37  79 W8        30.13R
ST JOSEPH      MOCLDY    42  35  76 NW7       30.14S
CHILLICOTHE      N/A     47  37  68 VRB7G22   30.10R
KIRKSVILLE     CLOUDY    45  37  73 W15G25    30.04R

$$
MOZ066>068-077>081-088>096-101>105-211400-
...SOUTHWEST MISSOURI...

CITY           SKY/WX    TMP DP  RH WIND       PRES   REMARKS
SPRINGFIELD    CLEAR     45  39  79 W8        30.14R
JOPLIN         CLEAR     43  39  86 SW6       30.20R
BRANSON        CLEAR     48  43  81 CALM      30.16R

$$
MOZ032>034-039>042-045>050-055>058-069>072-211400-
...CENTRAL MISSOURI...

CITY           SKY/WX    TMP DP  RH WIND       PRES   REMARKS
COLUMBIA       CLOUDY    47  39  74 W12       30.07R
JEFFERSON CITY CLEAR     48  38  68 W13       30.09R
ROLLA          CLEAR     47  42  83 W12       30.08R
SEDALIA        MOCLDY    45  38  76 W10       30.11R
WHITEMAN AFB   PTCLDY    45  39  81 W7        30.08R
WARRENSBURG    CLEAR     43  36  75 W5        30.13R

$$
MOZ051-052-059>065-211400-
...EAST CENTRAL MISSOURI...

CITY           SKY/WX    TMP DP  RH WIND       PRES   REMARKS
ST LOUIS INTL  PTCLDY    52  41  66 W13       30.03R
SPIRIT OF STL  CLEAR     50  42  74 W9        30.03R
ST CHARLES     MOCLDY    51  40  65 W12       30.02S

$$
MOZ072>076-082>087-097>100-106>115-211400-
...SOUTH CENTRAL AND SOUTHEAST MISSOURI...

CITY           SKY/WX    TMP DP  RH WIND       PRES   REMARKS
CAPE GIRARDEAU CLEAR     55  53  93 NW7       30.05R
FARMINGTON     CLEAR     52  45  77 W5          N/A
POPLAR BLUFF   CLEAR     58  50  75 W3        30.07R
WEST PLAINS    CLEAR     51  47  86 W7        30.11S

$$



USA.gov is the U.S. government's official web portal to all federal, state and local government web resources and services.